Burlington, NC

2:46 PM EST on November 20, 2017 (GMT -0500)
Burlington-Alamance Regional

Weather History for KBUY - January, 2012

Change the Weather History Date:

Saturday, January 28, 2012

  Actual Average Record
Temperature  
Mean Temperature 44 °F -  
Max Temperature 60 °F 50 °F 50 °F (2017)
Min Temperature 28 °F 26 °F 19 °F (2014)
Degree Days  
Heating Degree Days 21    
Moisture  
Dew Point 30 °F    
Average Humidity 60    
Maximum Humidity 92    
Minimum Humidity 33    
Precipitation  
Precipitation 0.00 in - - ()
Sea Level Pressure  
Sea Level Pressure 30.09 in    
Wind  
Wind Speed 4 mph (West)    
Max Wind Speed 17 mph    
Max Gust Speed 22 mph    
Visibility 10 miles    
Events      
Averages and records for this station are not official NWS values.
T = Trace of Precipitation, MM = Missing Value Source: NWS Daily Summary

Daily Weather History Graph

Daily Weather History Graph

Search for Another Location

Airport or City:

Trip Planner

Search our weather history database for the weather conditions in past years. The results will help you decide how hot, cold, wet, or windy it might be!

Date:

Astronomy

Jan. 28, 2012 Rise Set
Actual Time 7:21 AM EST 5:40 PM EST
Civil Twilight 6:54 AM EST 6:07 PM EST
Nautical Twilight 6:23 AM EST 6:38 PM EST
Astronomical Twilight 5:53 AM EST 7:08 PM EST
Moon 9:55 AM EST (1/28) 11:13 PM EST (1/28)
Length of Visible Light 11h 12m
Length of Day
10h 18m
Waxing Crescent, 27% of the Moon is Illuminated
Jan 28
Waxing Crescent
Jan 30
First Quarter
Feb 7
Full
Feb 14
Last Quarter
Feb 21
New

Hourly Weather History & Observations

Time (EST) Temp. Windchill Dew Point Humidity Pressure Visibility Wind Dir Wind Speed Gust Speed Precip Events Conditions
12:54 AM 36.0 °F - 30.9 °F 82% 30.02 in 10.0 mi Calm Calm - N/A   Clear
1:54 AM 35.1 °F 30.1 °F 30.9 °F 85% 30.04 in 10.0 mi WSW 5.8 mph - N/A   Clear
2:54 AM 33.1 °F - 30.0 °F 89% 30.05 in 10.0 mi Calm Calm - N/A   Clear
3:54 AM 32.0 °F - 28.9 °F 88% 30.05 in 10.0 mi Calm Calm - N/A   Clear
4:54 AM 32.0 °F - 28.9 °F 88% 30.05 in 10.0 mi Calm Calm - N/A   Clear
5:54 AM 30.9 °F - 28.0 °F 89% 30.04 in 10.0 mi Calm Calm - N/A   Clear
6:54 AM 28.9 °F - 27.0 °F 92% 30.09 in 10.0 mi Calm Calm - N/A   Clear
7:54 AM 30.9 °F - 28.9 °F 92% 30.11 in 10.0 mi Calm Calm - N/A   Clear
8:54 AM 37.9 °F 35.5 °F 33.1 °F 83% 30.10 in 10.0 mi SSW 3.5 mph - N/A   Clear
9:54 AM 46.0 °F 42.5 °F 35.1 °F 66% 30.11 in 10.0 mi WSW 6.9 mph - N/A   Clear
11:54 AM 53.1 °F - 34.0 °F 48% 30.09 in 10.0 mi WSW 8.1 mph 17.3 mph N/A   Clear
12:54 PM 55.9 °F - 34.0 °F 44% 30.05 in 10.0 mi SW 9.2 mph 18.4 mph N/A   Clear
1:54 PM 57.9 °F - 34.0 °F 41% 30.02 in 10.0 mi SW 11.5 mph - N/A   Clear
2:54 PM 60.1 °F - 34.0 °F 38% 30.03 in 10.0 mi WSW 9.2 mph - N/A   Clear
3:54 PM 60.1 °F - 33.1 °F 36% 30.04 in 10.0 mi West 8.1 mph - N/A   Clear
4:54 PM 57.0 °F - 33.1 °F 40% 30.04 in 10.0 mi WSW 6.9 mph - N/A   Partly Cloudy
5:54 PM 55.9 °F - 34.0 °F 44% 30.06 in 10.0 mi West 11.5 mph - N/A   Overcast
6:54 PM 54.0 °F - 33.1 °F 45% 30.13 in 10.0 mi West 11.5 mph - N/A   Mostly Cloudy
7:54 PM 51.1 °F - 30.9 °F 46% 30.17 in 10.0 mi WNW 17.3 mph 21.9 mph N/A   Mostly Cloudy
8:54 PM 48.9 °F - 21.0 °F 33% 30.19 in 10.0 mi WNW 12.7 mph - N/A   Overcast
9:54 PM 46.0 °F 41.0 °F 21.9 °F 39% 30.20 in 10.0 mi WNW 10.4 mph - N/A   Mostly Cloudy
10:54 PM 46.0 °F 43.9 °F 21.9 °F 39% 30.22 in 10.0 mi NW 4.6 mph - N/A   Overcast
11:54 PM 43.0 °F 38.8 °F 21.9 °F 43% 30.22 in 10.0 mi NW 6.9 mph - N/A   Mostly Cloudy